• Join FlightAware (Why Join?)
  • Login
  • US Flag 
05:46PM EST


 

Airport Tracker/Info


-or-


 

Live Flight TrackerFlight Track Log ✈ SWA267 ✈ 15-Apr-2013 ✈ KORF - KBWI

Flight Track Log - Related Links

Times and Time Zones

All times are in EDT time to prevent confusion due to time zone crossing. See the SWA267 flight status page for this flight to view local times or setup timezone preferences in your user account.

Time Position Orientation Groundspeed Altitude Reporting Facility
EDT Latitude Longitude Course Direction KTS MPH feet Rate Location/Type
12:24PM 36.9244 -76.1764 29° Northeast 177 204 1,500  Level Washington Center
12:25PM 36.9828 -76.1822 355° North 293 337 2,800 1,980 Climbing Washington Center
12:26PM 37.0011 -76.2758 284° West 277 319 5,400 2,700 Climbing Washington Center
12:27PM 37.0067 -76.3747 274° West 288 331 8,600 2,700 Climbing Washington Center
12:28PM 37.0436 -76.4661 297° West 289 333 11,200 2,460 Climbing Washington Center
12:29PM 37.0889 -76.5708 298° West 307 353 13,600 2,340 Climbing Washington Center
12:30PM 37.1378 -76.6808 299° West 335 386 15,900 1,620 Climbing Washington Center
12:31PM 37.1869 -76.7911 299° West 356 410 16,900 540 Climbing Washington Center
12:32PM 37.2358 -76.9067 298° West 369 425 17,000  Climbing Washington Center
12:33PM 37.2906 -77.0356 298° West 380 437 16,900 -60 Descending Washington Center
12:34PM 37.3417 -77.1356 303° West 372 428 16,900  Level Washington Center
12:35PM 37.4197 -77.2236 318° Northwest 372 428 16,900  Level Washington Center
12:36PM 37.5061 -77.3144 320° Northwest 366 421 16,900 -540 Level Washington Center
12:37PM 37.6144 -77.3064 North 350 403 15,900 -1,020 Descending Washington Center
12:38PM 37.7214 -77.2800 11° North 360 414 14,900 -540 Descending Washington Center
12:39PM 37.8239 -77.2558 11° North 367 422 14,900 -480 Level Washington Center
12:40PM 37.9264 -77.2344 North 367 422 14,000 -1,020 Descending Washington Center
12:41PM 38.0267 -77.2156 North 367 422 12,900 -1,020 Descending Washington Center
12:42PM 38.1167 -77.1939 11° North 367 422 12,000 -480 Descending Washington Center
12:43PM 38.2128 -77.1747 North 362 417 12,000  Level Washington Center
12:44PM 38.3153 -77.1531 North 350 403 12,000  Level Washington Center
12:45PM 38.3906 -77.1308 13° North 328 377 12,000  Level Washington Center
12:46PM 38.4647 -77.0394 44° Northeast 316 364 12,000  Level Washington Center
12:47PM 38.5344 -76.9533 44° Northeast 328 377 12,000 -660 Level Washington Center
12:48PM 38.6042 -76.8722 42° Northeast 338 389 10,700 -1,080 Descending Washington Center
12:49PM 38.6675 -76.7936 44° Northeast 333 383 9,900 -900 Descending Washington Center
12:50PM 38.7206 -76.7119 50° Northeast 312 359 8,900 -1,320 Descending Washington Center
12:51PM 38.7667 -76.6167 58° Northeast 293 337 7,200 -1,440 Descending Potomac TRACON
12:52PM 38.8167 -76.5333 52° Northeast 289 333 6,000 -960 Descending Potomac TRACON
12:53PM 38.8833 -76.5500 349° North 291 335 5,300 -900 Descending Potomac TRACON
12:54PM 38.9667 -76.6000 335° Northwest 286 329 4,300 -720 Descending Potomac TRACON
12:55PM 39.0000 -76.6667 303° West 280 322 4,000 -480 Descending Potomac TRACON
12:56PM 39.0333 -76.7333 303° West 237 273 3,400 -600 Descending Potomac TRACON
12:57PM 39.1000 -76.8000 322° Northwest 230 265 2,800 -600 Descending Potomac TRACON
12:58PM 39.1500 -76.8167 346° North 245 282 2,200 -720 Descending Potomac TRACON
12:59PM 39.1833 -76.7833 38° Northeast 204 235 1,500 -720 Descending Potomac TRACON
01:00PM 39.1833 -76.7333 90° East 131 151 800 -720 Descending Potomac TRACON
01:02PM 39.1667 -76.6667 100° East  Level FlightAware Approximate
01:09PM 39.1754 -76.6683 100° East  Level Estimated
01:10PM 39.1754 -76.6683 100° East  Level Estimated
01:11PM 39.1754 -76.6683 100° East  Level Estimated